Regional Weather Roundup
Issued by NWS

Home | Current Version | Previous Version | Graphics & Text | Print | Product List | Glossary On
Versions: 1 2 3 4 5 6 7 8 9 10 11 12 13 14 15 16 17 18 19 20 21 22 23 24 25 26 27 28
000
ASUS45 KBOU 182110
RWRCO

WEATHER ROUNDUP FOR COLORADO
NATIONAL WEATHER SERVICE DENVER/BOULDER CO
200 PM MST SAT NOV 18 2017

NOTE: "FAIR" INDICATES FEW OR NO CLOUDS BELOW 12000 FEET WITH NO
SIGNIFICANT WEATHER AND/OR OBSTRUCTIONS TO VISIBILITY.

COZ001>005-013-030-031-182200-
...NORTHWEST COLORADO...

CITY           SKY/WX    TMP DP  RH WIND       PRES   REMARKS
CRAIG          FAIR      30  18  60 E9        30.38F WCI  22
HAYDEN         FAIR      30  13  49 NE5       30.38F WCI  25
MEEKER         FAIR      30  22  72 MISG      30.37F
RABBIT EARS PA FAIR     N/A N/A N/A W6G16     30.26S
STEAMBOAT SPGS FAIR      28   8  44 NW3       30.37S
WALDEN         FAIR      25   9  50 S14       30.29F WCI  13
$$

COZ006>008-011-182200-
...WEST CENTRAL VALLEYS...

CITY           SKY/WX    TMP DP  RH WIND       PRES   REMARKS
GRAND JUNCTION FAIR      42  16  34 NE5       30.39F
MONTROSE       FAIR      39  15  37 CALM      30.40F
EAGLE          FAIR      37   9  31 VRB3      30.39F
RIFLE          FAIR      36  13  38 VRB5      30.39F
DELTA          FAIR      43  12  28 NE3       30.40F
NUCLA          FAIR      43  10  26 N6        30.39F
$$

COZ017>023-064>068-182200-
...SOUTHWEST COLORADO...

CITY           SKY/WX    TMP DP  RH WIND       PRES   REMARKS
DURANGO        FAIR      42  14  32 VRB3      30.30F
CORTEZ         FAIR      46  12  25 VRB5      30.33F
PAGOSA SPRINGS FAIR      41   9  26 CALM      30.30F
TELLURIDE      FAIR      35   9  33 W3        30.33F
WOLF CREEK PAS FAIR      23  18  80 SW9G16    30.37S WCI  13
$$

COZ009-010-012-014-032>034-037-058>063-182200-
...CENTRAL COLORADO...

CITY           SKY/WX    TMP DP  RH WIND       PRES   REMARKS
ASPEN          FAIR      30   7  37 N5        30.34F WCI  25
BUENA VISTA    FAIR      37   9  31 S6        30.26F
COPPER MTN     FAIR      21   1  42 W7        30.28S WCI  13
BERTHOUD PASS  PTSUNNY    5  -6  61 NW29      30.19R WCI -19
COTTONWOOD PAS FAIR      32  14  47 SE10      30.26F WCI  24
GUNNISON       FAIR      30  15  53 VRB5      30.36S WCI  25
KREMMLING      FAIR      37  10  32 SW9       30.34S
LEADVILLE      FAIR      26  10  50 N6        30.27S WCI  19
MONARCH PASS     N/A     18  14  86 W31       30.38S WCI  -2
SALIDA         FAIR      40  16  36 N8        30.32F
SUNLIGHT       FAIR      19   3  49 MISG      30.36S
WILKERSON PASS FAIR      25   0  33 W7        30.27F WCI  17
$$

COZ069>075-182200-
...SAN LUIS VALLEY/SANGRE DE CRISTO MOUNTAINS...

CITY           SKY/WX    TMP DP  RH WIND       PRES   REMARKS
ALAMOSA        FAIR      39   6  25 CALM      30.29F
DEL NORTE      FAIR      37  13  36 SE9       30.30S
LA VETA PASS   FAIR      30   5  34 S30G38      N/A  WCI  15
SAGUACHE       FAIR      39   5  24 N9        30.30F
$$

COZ035-036-038>040-182200-
...NORTHERN COLORADO FRONT RANGE...

CITY           SKY/WX    TMP DP  RH WIND       PRES   REMARKS
DENVER INTL AP FAIR      43  19  38 SE10      30.18F
DMNS CITY PARK   N/A     48   7  18 W6G12     30.17S
AURORA         MOSUNNY   44  13  28 S5        30.18F
FRONT RANGE AP SUNNY     45  19  36 SE12G17   30.20S
ERIE MUNI ARPT FAIR      50   4  15 W9        30.22S
BOULDER MUN AP FAIR      48  10  21 N6        30.15S
CENTENNIAL     FAIR      44  14  29 CALM      30.17F
BROOMFIELD     SUNNY     50   7  17 W15       30.18S
FORT COLLINS   FAIR      47  12  24 VRB6      30.18F
LONGMONT       FAIR      52   9  18 NE5       30.18F
$$

COZ041-046-047-076>085-087-088-182200-
...PIKES PEAK/PALMER DIVIDE AND SOUTHERN FOOTHILLS...

CITY           SKY/WX    TMP DP  RH WIND       PRES   REMARKS
COLO. SPRINGS  FAIR      43  11  27 S9        30.21F
A. F. ACADEMY  FAIR      41  13  32 SE7       30.19F
SCHRIEVER AFB  FAIR      40   8  25 SW6       30.21F
CHEYENNE MTN   FAIR      38  10  32 SE14      30.14F
ELLICOTT       NOT AVBL
FALCON         FAIR      40  10  28 S10       30.21F
FORT CARSON    FAIR      44   9  23 SE8       30.19F
LIMON          FAIR      41  13  31 W6        30.21F
MONUMENT HILL  FAIR      36  19  51 S10       30.21S
CANON CITY     FAIR      52  16  24 SE6       30.18F
WALSENBURG     FAIR      46  27  46 SE7       30.22F
TRINIDAD       FAIR      41  22  46 CALM      30.24F
$$

COZ042>045-048>051-090-091-182200-
...NORTHEAST COLORADO...

CITY           SKY/WX    TMP DP  RH WIND       PRES   REMARKS
GREELEY ARPT   FAIR      46  13  26 VRB3      30.19F
AKRON          FAIR      44  11  26 NW21      30.19F
BURLINGTON     FAIR      46  13  26 N17G28    30.21F
WRAY           NOT AVBL
YUMA           FAIR      43  14  31 NW22G30   30.20S
STERLING       FAIR      46  18  31 NW20G31   30.18F
HOLYOKE        FAIR      46  14  27 NW20G26   30.19S
FORT MORGAN    FAIR      47   7  20 W3        30.20F
$$

COZ086-089-092>099-182200-
...SOUTHEAST COLORADO...

CITY           SKY/WX    TMP DP  RH WIND       PRES   REMARKS
PUEBLO         FAIR      49  16  26 S7        30.22F
LA JUNTA       FAIR      49  13  23 VRB3      30.24F
LAMAR          FAIR      51  12  21 NW9G18    30.24S
SPRINGFIELD      N/A     47  15  27 NW14G20   30.25S
$$




USA.gov is the U.S. government's official web portal to all federal, state and local government web resources and services.